Location: fuzhou
(26.1169°N, 119.3250°E)
Time: 11:14:44
(UTC+08:00)

Hubble Space Telescope - Visible Passes

Search period start: 24 January 2018 00:00
Search period end: 03 February 2018 00:00
Orbit: 537 x 541 km, 28.5° (Epoch: 23 January)

Date Brightness Start Highest point End Pass type
(mag) Time Alt. Az. Time Alt. Az. Time Alt. Az.
24 Jan 0.6 19:01:29 10° WSW 19:05:37 89° N 19:06:30 54° ENE visible
25 Jan 0.7 18:51:16 10° W 18:55:23 79° N 18:56:53 38° ENE visible
26 Jan 0.8 18:41:03 10° W 18:45:10 71° N 18:47:17 27° ENE visible
26 Jan 4.0 20:22:27 10° WNW 20:22:38 11° WNW 20:22:38 11° WNW visible
27 Jan 0.9 18:30:52 10° W 18:34:58 65° N 18:37:40 20° ENE visible
27 Jan 3.6 20:12:14 10° WNW 20:13:02 15° WNW 20:13:02 15° WNW visible
28 Jan 0.9 18:20:40 10° W 18:24:45 62° N 18:28:05 15° ENE visible
28 Jan 3.2 20:02:00 10° WNW 20:03:27 21° WNW 20:03:27 21° WNW visible
29 Jan 1.0 18:10:28 10° W 18:14:33 61° N 18:18:32 11° E visible
29 Jan 2.6 19:51:46 10° WNW 19:53:54 30° WNW 19:53:54 30° WNW visible
30 Jan 1.0 18:00:16 10° W 18:04:21 61° N 18:08:26 10° E visible
30 Jan 1.8 19:41:32 10° W 19:44:25 43° W 19:44:25 43° W visible
31 Jan 1.1 19:31:19 10° W 19:34:59 61° SW 19:34:59 61° SW visible
01 Feb 1.2 19:21:07 10° W 19:25:08 53° SSW 19:25:38 49° S visible
02 Feb 1.7 19:10:57 10° W 19:14:51 42° SSW 19:16:24 29° SSE visible
